Weather in Novospasskoye

Russia / Ulyanovsk Oblast     53°08′50″N   47°45′56″E
temp.,
°C
wind,
m/s
gust,
m/s
humid.,
%
clouds,
%
prec.,
mm/h
press.,
hPa
HPBL,
m
26 october, tue
tue2601:00−1wnw2475100 0.0 1029128
04:00−2w25765 0.0 1030185
07:00−2wsw27765 0.0 1029229
10:000wsw586263 0.0 1029415
13:00+4wsw684051 0.0 1028843
16:00+4wsw694620 0.0 1026760
19:00+2wsw51260100 0.0 1026434
22:00+1wsw5126297 0.0 1026427
27 october, wed
wed2701:00+1wsw5126599 0.0 1026366
04:00+1wsw51364100 0.0 1025372
07:00+1wsw41362100 0.0 1024396
10:00+4wsw5145288 0.0 1023496
13:00+8wsw71240100 0.0 1022697
16:00+7sw61341100 0.0 1021719
19:00+4sw61444100 0.0 1020533
22:00+4sw6134556 0.0 1018528
28 october, thu
thu2801:00+3sw615465 0.0 1017522
04:00+3wsw61449100 0.0 1015604
07:00+4wsw6136499 0.0 1015651
10:00+5wsw51175100 0.0 1016545
13:00+8wsw5962100 0.0 10161237
16:00+7wsw4863100 0.0 1016653
19:00+7sw4960100 0.0 1015377
22:00+6sw41068100 0.0 1014407
29 october, fri
fri2901:00+6sw41086100 1.3 1013653
04:00+6w4990100 3.0 1012653
07:00+6n6988100 0.3 1014806
10:00+2n71395100 0.4 1019612
13:00+2nne710520 0.0 1023910
16:00+1nne610555 0.0 1026931
19:00−1nne511645 0.0 1030728
22:00−2nne37673 0.0 1032525
30 october, sat
sat3001:00−2n25700 0.0 1033266
04:00−3nw117212 0.0 103423
07:00−3w246874 0.0 1034157
10:000w374999 0.0 1034281
13:00+5w58355 0.0 1032496
16:00+5w59435 0.0 1032366
19:00+2w4125713 0.0 1032275
22:00+1w3137183 0.0 1032269